Flag for U.S.A. Weather past 2 weeks in Cocoa Beach, Florida, U.S.A.

Now
80 °F

Sunny.


Feels Like: 84 °F
Forecast: 75 / 83 °F
Wind: 5 mph from Southwest

Location: Cocoa / Patrick Air Force Base

Current Time: Jun 2, 2015 at 9:52:17 AM

Latest Report: Jun 2, 2015 at 8:58 AM


Visibility: 10 mi

Pressure: 30.04 "Hg

Humidity: 78%

Dew point: 72 °F

Location of Cocoa BeachLocation

Historic Weather in Cocoa Beach — Graph

°F

Cocoa Beach temperature yesterday

Maximum temperature yesterday: 85 °F (at 1:58 PM)
Minimum temperature yesterday: 75 °F (at 10:58 PM)
Average temperature yesterday: 80 °F

Past Weeks' High & Low Weather Summary

 TemperatureHumidityPressure
High90 °F (May 21, 1:58 PM)92% (May 22, 6:58 AM)30.25 "Hg (May 22, 6:58 AM)
Low73 °F (May 31, 6:02 AM)45% (May 18, 4:58 PM)29.91 "Hg (May 20, 5:58 PM)
Average81 °F71%30.10 "Hg
* Reported May 18 8:58 AM — Jun 2 8:58 AM, Cocoa Beach, Weather by CustomWeather, © 2015

Note: Actual official high and low records may vary slightly from our data, if they occured in-between our weather recording intervals... More about our weather records

Advertising

Cocoa Beach weather history for previous 24 hours

 ConditionsComfort  
Time TempWeatherWind HumidityBarometerVisibility
8:58 AM
Tue, Jun 2
80 °FSunny.5 mph78%30.04 "Hg10 mi
7:58 AM78 °FSunny.3 mph82%30.02 "Hg10 mi
6:58 AM76 °FClear.3 mph88%30.01 "Hg10 mi
5:58 AM76 °FClear.6 mph88%30.00 "Hg10 mi
4:58 AM77 °FClear.2 mph87%30.00 "Hg10 mi
3:58 AM77 °FClear.2 mph88%30.00 "Hg10 mi
2:58 AM77 °FClear.2 mph90%30.01 "Hg10 mi
1:58 AM77 °FPassing clouds.No wind90%30.03 "Hg10 mi
12:58 AM76 °FClear.5 mph90%30.03 "Hg10 mi
11:58 PM
Mon, Jun 1
76 °FClear.5 mph89%30.05 "Hg10 mi
10:59 PM75 °FThunderstorms. Passing clouds.3 mph89%30.07 "Hg10 mi
10:58 PM75 °FPassing clouds.5 mph88%30.08 "Hg10 mi
10:02 PM81 °FThunderstorms. Passing clouds.7 mph74%30.07 "Hg10 mi
9:58 PM81 °FPassing clouds.6 mph74%30.07 "Hg10 mi
8:58 PM81 °FPassing clouds.12 mph73%30.05 "Hg10 mi
7:58 PM81 °FPassing clouds.15 mph73%30.03 "Hg10 mi
6:58 PM81 °FSunny.16 mph72%29.99 "Hg10 mi
5:58 PM83 °FSunny.14 mph69%30.00 "Hg10 mi
4:58 PM83 °FSunny.15 mph70%30.03 "Hg10 mi
3:58 PM82 °FSunny.14 mph70%30.04 "Hg10 mi
2:58 PM82 °FSunny.14 mph70%30.04 "Hg10 mi
1:58 PM85 °FSunny.14 mph65%30.07 "Hg10 mi
12:58 PM85 °FSunny.14 mph66%30.08 "Hg10 mi
11:58 AM84 °FSunny.10 mph68%30.10 "Hg10 mi
10:58 AM83 °FSunny.12 mph71%30.10 "Hg10 mi
9:58 AM82 °FRain. Broken clouds.9 mph74%30.10 "Hg7 mi
Weather by CustomWeather, © 2015

See weather overviewHow to use our weather pages